Weather History for Wichita, KS

Change the Weather History Date:

Wednesday, November 9, 2011

  Actual Average Record
Temperature  
Mean Temperature 45 °F 49 °F  
Max Temperature 56 °F 60 °F 82 °F (2006)
Min Temperature 34 °F 38 °F 21 °F (1950)
Degree Days  
Heating Degree Days 20 16  
Month to date heating degree days 150 131  
Since 1 July heating degree days 375 417  
Cooling Degree Days 0 0  
Month to date cooling degree days 0 0  
Year to date cooling degree days 2310 1684  
Moisture  
Dew Point 32 °F    
Average Humidity 68    
Maximum Humidity 100    
Minimum Humidity 35    
Precipitation  
Precipitation T in 0.05 in 1.13 in (1919)
Month to date precipitation 2.19 0.51  
Year to date precipitation 21.24 30.52  
Snow  
Snow 0.00 in 0.00 in 8.70 in (1888)
Month to date snowfall 0.3 0.1  
Since 1 July snowfall 0.3 0.2  
Since 1 September snowfall 0.3 0.2  
Snow Depth 0.00 in    
Sea Level Pressure  
Sea Level Pressure 30.32 in    
Wind  
Wind Speed 11 mph (NW)    
Max Wind Speed 26 mph    
Max Gust Speed 32 mph    
Visibility 10 miles    
Events Rain    
T = Trace of Precipitation, MM = Missing Value Source: NWS Daily Summary

Daily Weather History Graph

Daily Weather History Graph

Search for Another Location

Airport:

Trip Planner

Search our weather history database for the weather conditions in past years. The results will help you decide how hot, cold, wet, or windy it might be!

Date:

Astronomy

Nov. 09, 2011 Rise Set
Actual Time 7:03 AM CST 5:23 PM CST
Civil Twilight 6:35 AM CST 5:51 PM CST
Nautical Twilight 6:04 AM CST 6:22 PM CST
Astronomical Twilight 5:33 AM CST 6:53 PM CST
Moon 4:36 PM CST (11/9) 5:59 AM CST (11/9)
Length of Visible Light 11h 15m
Length of Day
10h 20m
Waxing Gibbous, 99% of the Moon is Illuminated
Nov 9
Waxing Gibbous
Nov 10
Full
Nov 18
Last Quarter
Nov 25
New
Dec 2
First Quarter

Hourly Weather History & Observations

Time (CST) Temp. Windchill Dew Point Humidity Pressure Visibility Wind Dir Wind Speed Gust Speed Precip Events Conditions
12:04 AM 37.4 °F 26.9 °F 35.6 °F 93% 30.12 in 10.0 mi NNW 20.7 mph 29.9 mph N/A   Overcast
12:53 AM 39.9 °F 31.4 °F 35.1 °F 83% 30.16 in 10.0 mi NNW 16.1 mph 31.1 mph 0.00 in Rain Light Rain
1:53 AM 36.0 °F 29.0 °F 34.0 °F 93% 30.19 in 10.0 mi NW 9.2 mph - 0.00 in   Clear
2:53 AM 35.1 °F 27.9 °F 33.1 °F 92% 30.21 in 10.0 mi NW 9.2 mph - N/A   Clear
3:53 AM 35.1 °F 27.9 °F 35.1 °F 100% 30.23 in 10.0 mi WNW 9.2 mph - N/A   Clear
4:53 AM 35.6 °F 26.6 °F 35.6 °F 100% 30.21 in 10.0 mi NW 13.8 mph - N/A   Clear
5:53 AM 36.0 °F 27.5 °F 30.9 °F 82% 30.25 in 10.0 mi NW 12.7 mph - N/A   Clear
6:53 AM 35.1 °F 27.9 °F 30.9 °F 85% 30.29 in 10.0 mi NW 9.2 mph - N/A   Clear
7:53 AM 35.6 °F 28.6 °F 32.0 °F 87% 30.29 in 10.0 mi NW 9.2 mph - N/A   Clear
8:53 AM 39.9 °F 32.9 °F 33.1 °F 77% 30.36 in 10.0 mi NW 11.5 mph - N/A   Clear
9:53 AM 43.0 °F 35.4 °F 34.0 °F 71% 30.39 in 10.0 mi NNW 16.1 mph - N/A   Clear
10:53 AM 46.9 °F - 34.0 °F 61% 30.40 in 10.0 mi NNW 13.8 mph - N/A   Clear
11:53 AM 51.8 °F - 33.8 °F 50% 30.37 in 10.0 mi North 12.7 mph - N/A   Clear
12:53 PM 53.1 °F - 32.0 °F 45% 30.37 in 10.0 mi NNW 13.8 mph - N/A   Partly Cloudy
1:53 PM 55.0 °F - 30.0 °F 38% 30.36 in 10.0 mi NNW 18.4 mph 28.8 mph N/A   Partly Cloudy
2:53 PM 55.0 °F - 28.0 °F 35% 30.36 in 10.0 mi North 17.3 mph 27.6 mph N/A   Partly Cloudy
3:53 PM 54.0 °F - 28.0 °F 37% 30.36 in 10.0 mi NNW 21.9 mph 28.8 mph N/A   Clear
4:53 PM 52.0 °F - 28.9 °F 41% 30.37 in 10.0 mi NNW 10.4 mph - N/A   Clear
5:53 PM 45.0 °F 41.8 °F 30.9 °F 58% 30.38 in 10.0 mi NW 5.8 mph - N/A   Clear
6:53 PM 42.1 °F 39.2 °F 32.0 °F 67% 30.39 in 10.0 mi West 4.6 mph - N/A   Clear
7:53 PM 37.0 °F 32.4 °F 32.0 °F 82% 30.39 in 10.0 mi West 5.8 mph - N/A   Clear
8:53 PM 37.0 °F 32.4 °F 32.0 °F 82% 30.40 in 10.0 mi WNW 5.8 mph - N/A   Clear
9:53 PM 37.0 °F 33.3 °F 32.0 °F 82% 30.41 in 10.0 mi WNW 4.6 mph - N/A   Clear
10:53 PM 37.0 °F 33.3 °F 30.9 °F 79% 30.40 in 10.0 mi NW 4.6 mph - N/A   Clear
11:53 PM 37.0 °F 32.4 °F 30.9 °F 79% 30.41 in 10.0 mi NW 5.8 mph - N/A   Clear